STARLINK-2608

operational
NORAD ID: 48365 Int'l Des: 2021-038 Owner: SPXS Country: US Constellation: starlink
LEOCIRCULARSTARLINK_TYPE

关于 STARLINK-2608

正在加载描述...

实时位置

正在加载3D地球...

即将过境

高度历史

Altitude vs Time

uPlot chart will show altitude changes over time

两行轨道根数

1 48365U 21038N 25250.87037939 .00002458 00000-0 18389-3 0 9991
2 48365 53.0545 97.3243 0001302 92.3235 267.7903 15.06389676239546
Epoch: Sep 7, 2025 • Age: 27 hours

当前状态

高度 552.9 km
速度 7.59 km/s
星下点 53.21°N, 171.55°W
发射日期 May 4, 2021
运行时间 4.3 years
类型 internet

技术详情

分类 Payload
质量 260.00 kg
干质量 248.00 kg
总质量 260.00 kg
长度 0.20 m
直径 2.80 m
跨度 9.00 m
形状 Box + pan
制造商 SPXS
平台类型 Starlink
阶段状态 In Orbit
所有者/国家 SPXS/US

大型星座

Loading constellations...